2024-159J

Last updated on Thu Sep 19 2024 00:02:04 GMT+0000 (Coordinated Universal Time)

1 61019U 24159J 24262.39064537 .00014300 00000+0 11422-2 0 9990 2 61019 49.9971 180.2915 0006695 48.0357 312.1158 15.00404688 1869
UTC large
Height (km)
Speed (km/s)
/
Latitude / Longitude
Inclination (degrees)
Orbital Period (minutes)
Azimuth
Elevation
Range (km)
Doppler Factor

Next 0 passes for location: London (51.5072 / 0.1276)

Sorry there are no passes over London.